PLI203 SPJC-SPQU

Flight info

Callsign PLI203
Flight time 1h 4m
Altitude 39000
Route PAKOL5 AKSOL UT222 ASUPA ASUP1B
Aircraft B732/M-SDE2E3FGHIRWXY/LB1

Departure

Time 2026-04-16 03:30
Airport Jorge Chávez International Airport (SPJC)

Arrival

Time 2026-04-16 04:35
Airport Rodríguez Ballón International Airport (SPQU)
Time Latitude Longitude Altitude Speed Heading
2026-04-16 03:16 -12.02474 -77.11616 52 ft 0 kts 64°
2026-04-16 03:20 -12.02480 -77.11628 85 ft 4 kts 63°
2026-04-16 03:20 -12.02493 -77.11652 81 ft 4 kts 52°
2026-04-16 03:21 -12.02512 -77.11666 85 ft 4 kts 344°
2026-04-16 03:21 -12.02516 -77.11664 85 ft 0 kts 334°
2026-04-16 03:24 -12.02515 -77.11665 79 ft 1 kts 334°
2026-04-16 03:25 -12.02485 -77.11680 79 ft 9 kts 334°
2026-04-16 03:25 -12.02418 -77.11712 80 ft 12 kts 344°
2026-04-16 03:25 -12.02360 -77.11661 79 ft 13 kts 64°
2026-04-16 03:25 -12.02287 -77.11638 73 ft 14 kts 335°
2026-04-16 03:26 -12.02186 -77.11689 72 ft 18 kts 335°
2026-04-16 03:26 -12.02068 -77.11747 68 ft 20 kts 334°
2026-04-16 03:26 -12.01951 -77.11801 60 ft 17 kts 350°
2026-04-16 03:26 -12.01868 -77.11764 68 ft 11 kts 345°
2026-04-16 03:27 -12.01791 -77.11803 60 ft 14 kts 334°
2026-04-16 03:27 -12.01694 -77.11852 60 ft 17 kts 333°
2026-04-16 03:27 -12.01583 -77.11893 64 ft 18 kts 20°
2026-04-16 03:27 -12.01555 -77.11855 61 ft 0 kts 65°
2026-04-16 03:29 -12.01554 -77.11852 61 ft 3 kts 65°
2026-04-16 03:29 -12.01527 -77.11786 62 ft 15 kts 87°
2026-04-16 03:29 -12.01634 -77.11704 65 ft 37 kts 154°
2026-04-16 03:29 -12.02068 -77.11491 69 ft 99 kts 154°
2026-04-16 03:30 -12.02829 -77.11115 119 ft 139 kts 155°
2026-04-16 03:30 -12.03751 -77.10662 374 ft 159 kts 155°
2026-04-16 03:30 -12.04807 -77.10150 831 ft 168 kts 155°
2026-04-16 03:30 -12.05803 -77.09662 1615 ft 149 kts 154°
2026-04-16 03:31 -12.06714 -77.09210 2341 ft 148 kts 154°
2026-04-16 03:31 -12.07742 -77.08701 2706 ft 181 kts 154°
2026-04-16 03:31 -12.08985 -77.08086 3012 ft 214 kts 154°
2026-04-16 03:31 -12.10424 -77.07373 3246 ft 247 kts 154°
2026-04-16 03:32 -12.12040 -77.06537 3736 ft 267 kts 147°
2026-04-16 03:32 -12.13478 -77.05291 4525 ft 275 kts 135°
2026-04-16 03:34 -12.22932 -76.94885 10746 ft 309 kts 133°
2026-04-16 03:34 -12.24441 -76.93256 11439 ft 320 kts 133°
2026-04-16 03:34 -12.25987 -76.91591 12325 ft 325 kts 134°
2026-04-16 03:34 -12.27558 -76.89903 13282 ft 329 kts 134°
2026-04-16 03:35 -12.29144 -76.88201 14169 ft 333 kts 134°
2026-04-16 03:35 -12.30762 -76.86466 15001 ft 339 kts 134°
2026-04-16 03:35 -12.32375 -76.84737 15818 ft 344 kts 134°
2026-04-16 03:35 -12.34045 -76.82947 16635 ft 350 kts 134°
2026-04-16 03:36 -12.35741 -76.81130 17434 ft 356 kts 134°
2026-04-16 03:36 -12.37465 -76.79282 18233 ft 362 kts 134°
2026-04-16 03:36 -12.39224 -76.77396 18945 ft 367 kts 133°
2026-04-16 03:36 -12.40996 -76.75497 19714 ft 370 kts 133°
2026-04-16 03:37 -12.42787 -76.73576 20473 ft 374 kts 133°
2026-04-16 03:37 -12.44576 -76.71658 21190 ft 379 kts 133°
2026-04-16 03:37 -12.46410 -76.69690 21912 ft 384 kts 133°
2026-04-16 03:37 -12.48267 -76.67698 22634 ft 388 kts 132°
2026-04-16 03:38 -12.50143 -76.65684 23349 ft 393 kts 132°
2026-04-16 03:38 -12.52041 -76.63646 23946 ft 398 kts 132°
2026-04-16 03:38 -12.53308 -76.62285 24316 ft 401 kts 132°
2026-04-16 03:38 -12.55243 -76.60207 24896 ft 405 kts 133°
2026-04-16 03:39 -12.57196 -76.58110 25462 ft 409 kts 133°
2026-04-16 03:39 -12.59174 -76.55986 26035 ft 414 kts 133°
2026-04-16 03:39 -12.61169 -76.53842 26603 ft 418 kts 133°
2026-04-16 03:39 -12.63189 -76.51672 27176 ft 422 kts 133°
2026-04-16 03:40 -12.65231 -76.49477 27719 ft 427 kts 133°
2026-04-16 03:40 -12.67294 -76.47259 28258 ft 431 kts 133°
2026-04-16 03:40 -12.69374 -76.45022 28794 ft 435 kts 133°
2026-04-16 03:40 -12.71464 -76.42773 29305 ft 440 kts 134°
2026-04-16 03:41 -12.73570 -76.40507 29821 ft 444 kts 134°
2026-04-16 03:41 -12.75710 -76.38204 30295 ft 448 kts 134°
2026-04-16 03:41 -12.77870 -76.35879 30745 ft 451 kts 134°
2026-04-16 03:41 -12.80039 -76.33543 31206 ft 454 kts 134°
2026-04-16 03:42 -12.82225 -76.31187 31640 ft 457 kts 134°
2026-04-16 03:42 -12.84427 -76.28814 32141 ft 459 kts 134°
2026-04-16 03:42 -12.86623 -76.26448 32763 ft 457 kts 134°
2026-04-16 03:42 -12.88815 -76.24084 33418 ft 455 kts 134°
2026-04-16 03:43 -12.90990 -76.21738 34043 ft 453 kts 134°
2026-04-16 03:43 -12.93161 -76.19396 34521 ft 453 kts 134°
2026-04-16 03:43 -12.95314 -76.17073 34911 ft 455 kts 134°
2026-04-16 03:43 -12.97493 -76.14721 35310 ft 456 kts 134°
2026-04-16 03:44 -12.99683 -76.12358 35772 ft 456 kts 134°
2026-04-16 03:44 -13.01867 -76.09998 36244 ft 455 kts 134°
2026-04-16 03:44 -13.04050 -76.07640 36654 ft 456 kts 134°
2026-04-16 03:44 -13.06241 -76.05272 37068 ft 456 kts 134°
2026-04-16 03:45 -13.08430 -76.02907 37452 ft 457 kts 134°
2026-04-16 03:45 -13.10619 -76.00539 37764 ft 458 kts 134°
2026-04-16 03:45 -13.12811 -75.98169 38192 ft 457 kts 134°
2026-04-16 03:45 -13.14997 -75.95804 38645 ft 456 kts 134°
2026-04-16 03:46 -13.17159 -75.93465 38957 ft 457 kts 134°
2026-04-16 03:46 -13.21567 -75.88693 39021 ft 463 kts 134°
2026-04-16 03:47 -13.25969 -75.83924 39006 ft 456 kts 134°
2026-04-16 03:47 -13.30328 -75.79200 39025 ft 456 kts 134°
2026-04-16 03:48 -13.34701 -75.74456 39032 ft 458 kts 134°
2026-04-16 03:48 -13.39055 -75.69716 39036 ft 458 kts 134°
2026-04-16 03:49 -13.43438 -75.64940 39043 ft 459 kts 134°
2026-04-16 03:49 -13.47824 -75.60158 39055 ft 460 kts 134°
2026-04-16 03:50 -13.52217 -75.55366 39048 ft 460 kts 134°
2026-04-16 03:50 -13.56612 -75.50577 39054 ft 458 kts 134°
2026-04-16 03:51 -13.60971 -75.45840 39055 ft 458 kts 134°
2026-04-16 03:51 -13.65348 -75.41081 39061 ft 458 kts 134°
2026-04-16 03:52 -13.69730 -75.36312 39072 ft 457 kts 134°
2026-04-16 03:52 -13.74063 -75.31592 39079 ft 455 kts 134°
2026-04-16 03:53 -13.78411 -75.26851 39090 ft 455 kts 134°
2026-04-16 03:53 -13.82762 -75.22106 39104 ft 455 kts 133°
2026-04-16 03:54 -13.87117 -75.17353 39106 ft 457 kts 133°
2026-04-16 03:54 -13.91502 -75.12566 39100 ft 460 kts 133°
2026-04-16 03:55 -13.95871 -75.07792 39111 ft 462 kts 133°
2026-04-16 03:55 -14.00295 -75.02956 39138 ft 465 kts 133°
2026-04-16 03:56 -14.04746 -74.98086 39104 ft 467 kts 133°
2026-04-16 03:56 -14.09198 -74.93213 39108 ft 466 kts 133°
2026-04-16 03:57 -14.13633 -74.88355 39098 ft 464 kts 133°
2026-04-16 03:57 -14.18044 -74.83521 39109 ft 461 kts 133°
2026-04-16 03:58 -14.22399 -74.78746 39106 ft 459 kts 133°
2026-04-16 03:58 -14.26770 -74.73951 39118 ft 457 kts 133°
2026-04-16 03:59 -14.31142 -74.69149 39129 ft 460 kts 133°
2026-04-16 03:59 -14.35533 -74.64324 39128 ft 462 kts 133°
2026-04-16 04:00 -14.39920 -74.59503 39123 ft 465 kts 133°
2026-04-16 04:00 -14.44340 -74.54641 39126 ft 463 kts 133°
2026-04-16 04:01 -14.48752 -74.49786 39130 ft 462 kts 133°
2026-04-16 04:01 -14.53142 -74.44951 39151 ft 461 kts 133°
2026-04-16 04:02 -14.57530 -74.40115 39147 ft 462 kts 133°
2026-04-16 04:02 -14.61909 -74.35286 39156 ft 465 kts 133°
2026-04-16 04:03 -14.66342 -74.30394 39160 ft 467 kts 133°
2026-04-16 04:03 -14.70789 -74.25484 39160 ft 468 kts 133°
2026-04-16 04:04 -14.75234 -74.20573 39156 ft 468 kts 133°
2026-04-16 04:04 -14.79663 -74.15663 39130 ft 464 kts 131°
2026-04-16 04:05 -14.83536 -74.10354 39156 ft 463 kts 123°
2026-04-16 04:05 -14.87149 -74.04861 39138 ft 464 kts 123°
2026-04-16 04:06 -14.90789 -73.99343 39146 ft 464 kts 123°
2026-04-16 04:06 -14.94462 -73.93851 39153 ft 463 kts 123°
2026-04-16 04:07 -14.98121 -73.88413 39147 ft 462 kts 123°
2026-04-16 04:07 -15.03628 -73.80229 39166 ft 461 kts 123°
2026-04-16 04:08 -15.07294 -73.74775 39180 ft 461 kts 123°
2026-04-16 04:08 -15.10954 -73.69323 39182 ft 461 kts 123°
2026-04-16 04:09 -15.14587 -73.63908 39199 ft 461 kts 124°
2026-04-16 04:09 -15.18250 -73.58445 39202 ft 461 kts 123°
2026-04-16 04:10 -15.21909 -73.52984 39198 ft 461 kts 123°
2026-04-16 04:10 -15.25573 -73.47510 39206 ft 462 kts 123°
2026-04-16 04:11 -15.29212 -73.42071 39207 ft 463 kts 124°
2026-04-16 04:11 -15.32881 -73.36583 39217 ft 462 kts 123°
2026-04-16 04:12 -15.36538 -73.31108 39218 ft 462 kts 123°
2026-04-16 04:12 -15.38368 -73.28368 39012 ft 464 kts 123°
2026-04-16 04:12 -15.40206 -73.25614 38441 ft 465 kts 123°
2026-04-16 04:13 -15.42022 -73.22892 37885 ft 464 kts 123°
2026-04-16 04:13 -15.43879 -73.20107 37281 ft 463 kts 124°
2026-04-16 04:13 -15.45709 -73.17363 36693 ft 463 kts 124°
2026-04-16 04:13 -15.47520 -73.14646 36106 ft 464 kts 124°
2026-04-16 04:14 -15.49360 -73.11883 35419 ft 466 kts 124°
2026-04-16 04:14 -15.51198 -73.09124 34913 ft 463 kts 124°
2026-04-16 04:14 -15.53027 -73.06378 34424 ft 460 kts 124°
2026-04-16 04:14 -15.54840 -73.03655 33876 ft 457 kts 124°
2026-04-16 04:15 -15.56634 -73.00957 33425 ft 452 kts 124°
2026-04-16 04:15 -15.58413 -72.98282 32941 ft 449 kts 124°
2026-04-16 04:15 -15.60179 -72.95624 32473 ft 445 kts 124°
2026-04-16 04:15 -15.61930 -72.92990 32027 ft 441 kts 124°
2026-04-16 04:16 -15.63667 -72.90376 31589 ft 438 kts 124°
2026-04-16 04:16 -15.65386 -72.87787 31139 ft 434 kts 124°
2026-04-16 04:16 -15.67066 -72.85256 30706 ft 426 kts 125°
2026-04-16 04:16 -15.68751 -72.82716 30282 ft 420 kts 125°
2026-04-16 04:17 -15.70383 -72.80256 29793 ft 418 kts 125°
2026-04-16 04:17 -15.72025 -72.77781 29315 ft 414 kts 125°
2026-04-16 04:17 -15.73649 -72.75332 28847 ft 410 kts 125°
2026-04-16 04:17 -15.75256 -72.72907 28402 ft 406 kts 125°
2026-04-16 04:18 -15.76845 -72.70509 27967 ft 402 kts 124°
2026-04-16 04:18 -15.78424 -72.68125 27518 ft 398 kts 124°
2026-04-16 04:18 -15.79986 -72.65765 27087 ft 395 kts 124°
2026-04-16 04:18 -15.81536 -72.63424 26678 ft 392 kts 124°
2026-04-16 04:19 -15.83076 -72.61096 26238 ft 390 kts 124°
2026-04-16 04:19 -15.84609 -72.58778 25808 ft 388 kts 124°
2026-04-16 04:19 -15.86137 -72.56468 25368 ft 387 kts 124°
2026-04-16 04:19 -15.87663 -72.54160 24937 ft 386 kts 124°
2026-04-16 04:20 -15.89184 -72.51857 24490 ft 385 kts 124°
2026-04-16 04:20 -15.90694 -72.49572 24061 ft 384 kts 124°
2026-04-16 04:20 -15.92204 -72.47286 23596 ft 382 kts 124°
2026-04-16 04:20 -15.93703 -72.45014 23132 ft 380 kts 124°
2026-04-16 04:21 -15.95172 -72.42788 22700 ft 377 kts 124°
2026-04-16 04:21 -15.96649 -72.40548 22256 ft 373 kts 124°
2026-04-16 04:21 -15.98090 -72.38363 21832 ft 361 kts 124°
2026-04-16 04:21 -15.99492 -72.36236 21437 ft 354 kts 124°
2026-04-16 04:22 -16.00880 -72.34129 21046 ft 352 kts 124°
2026-04-16 04:22 -16.02260 -72.32034 20656 ft 350 kts 124°
2026-04-16 04:22 -16.03635 -72.29946 20257 ft 349 kts 124°
2026-04-16 04:22 -16.05010 -72.27856 19856 ft 348 kts 124°
2026-04-16 04:23 -16.06374 -72.25785 19446 ft 347 kts 124°
2026-04-16 04:23 -16.07724 -72.23734 19042 ft 346 kts 124°
2026-04-16 04:23 -16.09095 -72.21650 18392 ft 353 kts 124°
2026-04-16 04:23 -16.10476 -72.19549 17848 ft 349 kts 124°
2026-04-16 04:24 -16.11825 -72.17499 17407 ft 337 kts 124°
2026-04-16 04:24 -16.13125 -72.15524 17007 ft 326 kts 124°
2026-04-16 04:24 -16.14383 -72.13611 16604 ft 315 kts 124°
2026-04-16 04:24 -16.15602 -72.11756 16248 ft 308 kts 124°
2026-04-16 04:25 -16.16405 -72.10534 16023 ft 308 kts 124°
2026-04-16 04:25 -16.17612 -72.08696 15665 ft 307 kts 124°
2026-04-16 04:25 -16.18819 -72.06857 15280 ft 307 kts 124°
2026-04-16 04:25 -16.20416 -72.04425 14796 ft 307 kts 124°
2026-04-16 04:26 -16.21235 -72.03177 14535 ft 307 kts 124°
2026-04-16 04:26 -16.22427 -72.01361 14167 ft 307 kts 124°
2026-04-16 04:26 -16.23631 -71.99525 13753 ft 307 kts 124°
2026-04-16 04:26 -16.24830 -71.97696 13366 ft 305 kts 124°
2026-04-16 04:27 -16.26022 -71.95878 12989 ft 303 kts 124°
2026-04-16 04:27 -16.27198 -71.94084 12811 ft 295 kts 124°
2026-04-16 04:27 -16.28335 -71.92349 12675 ft 285 kts 124°
2026-04-16 04:27 -16.29438 -71.90666 12552 ft 276 kts 124°
2026-04-16 04:28 -16.30506 -71.89035 12442 ft 268 kts 124°
2026-04-16 04:28 -16.31543 -71.87453 12335 ft 260 kts 124°
2026-04-16 04:28 -16.32313 -71.85823 12215 ft 251 kts 102°
2026-04-16 04:28 -16.32582 -71.84061 12146 ft 242 kts 96°
2026-04-16 04:29 -16.32723 -71.82351 12062 ft 228 kts 94°
2026-04-16 04:29 -16.32820 -71.80758 11916 ft 213 kts 93°
2026-04-16 04:29 -16.32900 -71.79260 11722 ft 207 kts 93°
2026-04-16 04:29 -16.32975 -71.77794 11544 ft 199 kts 93°
2026-04-16 04:30 -16.33047 -71.76399 11348 ft 187 kts 92°
2026-04-16 04:30 -16.33115 -71.75079 11171 ft 180 kts 92°
2026-04-16 04:30 -16.33182 -71.73805 11078 ft 172 kts 92°
2026-04-16 04:30 -16.33248 -71.72520 10917 ft 181 kts 92°
2026-04-16 04:31 -16.33315 -71.71243 10713 ft 170 kts 92°
2026-04-16 04:31 -16.33375 -71.70079 10500 ft 154 kts 92°
2026-04-16 04:31 -16.33430 -71.69028 10353 ft 143 kts 92°
2026-04-16 04:31 -16.33484 -71.67986 10187 ft 145 kts 92°
2026-04-16 04:32 -16.33539 -71.66939 9968 ft 147 kts 92°
2026-04-16 04:32 -16.33595 -71.65876 9742 ft 146 kts 92°
2026-04-16 04:32 -16.33651 -71.64831 9523 ft 144 kts 92°
2026-04-16 04:32 -16.33704 -71.63789 9313 ft 144 kts 92°
2026-04-16 04:33 -16.33758 -71.62755 9114 ft 143 kts 92°
2026-04-16 04:33 -16.33813 -71.61718 8938 ft 145 kts 92°
2026-04-16 04:33 -16.33867 -71.60685 8741 ft 144 kts 93°
2026-04-16 04:33 -16.33923 -71.59635 8524 ft 144 kts 93°
2026-04-16 04:34 -16.33980 -71.58591 8329 ft 145 kts 92°
2026-04-16 04:34 -16.34028 -71.57625 8335 ft 110 kts 93°
2026-04-16 04:34 -16.34063 -71.56978 8376 ft 78 kts 93°
2026-04-16 04:34 -16.34089 -71.56473 8400 ft 64 kts 93°
2026-04-16 04:35 -16.34108 -71.56131 8411 ft 34 kts 93°
2026-04-16 04:35 -16.34120 -71.55907 8412 ft 29 kts 93°
2026-04-16 04:35 -16.34130 -71.55748 8412 ft 14 kts 105°
2026-04-16 04:35 -16.34173 -71.55736 8412 ft 5 kts 228°
2026-04-16 04:36 -16.34205 -71.55787 8410 ft 11 kts 239°
2026-04-16 04:36 -16.34263 -71.55886 8398 ft 21 kts 237°
2026-04-16 04:36 -16.34348 -71.56021 8384 ft 22 kts 235°
2026-04-16 04:36 -16.34380 -71.56182 8371 ft 24 kts 274°
2026-04-16 04:37 -16.34371 -71.56345 8355 ft 22 kts 273°
2026-04-16 04:37 -16.34362 -71.56503 8344 ft 22 kts 274°
2026-04-16 04:37 -16.34358 -71.56585 8344 ft 7 kts 273°
2026-04-16 04:37 -16.34355 -71.56634 8344 ft 7 kts 273°
2026-04-16 04:38 -16.34354 -71.56682 8344 ft 4 kts 261°
2026-04-16 04:38 -16.34378 -71.56708 8345 ft 6 kts 216°
2026-04-16 04:38 -16.34390 -71.56717 8343 ft 0 kts 217°
2026-04-16 04:38 -16.34393 -71.56719 8343 ft 0 kts 217°
2026-04-16 04:39 -16.34396 -71.56721 8343 ft 0 kts 217°